Regional Weather Roundup
Issued by NWS Cleveland, OH

Home | Current Version | Previous Version | Graphics & Text | Print | Product List | Glossary On
Versions: 1 2 3 4 5 6 7 8 9 10 11 12 13 14 15 16 17 18 19 20 21 22 23 24 25 26 27 28 29 30 31 32 33 34 35 36 37 38 39 40 41 42 43 44 45 46 47 48 49 50
000
ASUS41 KCLE 240810
RWRCLE
OHIO REGIONAL WEATHER ROUNDUP
NATIONAL WEATHER SERVICE WILMINGTON, OH
300 AM EST MON NOV 24 2014

NOTE: "FAIR" INDICATES FEW OR NO CLOUDS BELOW 12,000 FEET WITH NO
SIGNIFICANT WEATHER AND/OR OBSTRUCTIONS TO VISIBILITY.

OHZ001>008-015>018-024>027-034-035-043-044-240900-
   NORTHWEST OHIO

CITY           SKY/WX    TMP DP  RH WIND       PRES   REMARKS
DEFIANCE       LGT RAIN  57  54  89 SW23G38   29.12R
FINDLAY        LGT RAIN  58  54  86 S35G44    29.15R
TOLEDO EXPRESS LGT RAIN  56  54  93 S16G24    29.09F
TOLEDO METCALF LGT RAIN  57  53  86 S24G35    29.11F
LIMA           CLOUDY    59  32  36 SW21G35   29.19R
$$

OHZ009>014-019>023-028>033-038-089-240900-
   NORTHEAST OHIO

CITY           SKY/WX    TMP DP  RH WIND       PRES   REMARKS
CLE-HOPKINS    LGT RAIN  58  52  80 S23G32    29.24F
CLE-LAKEFRONT  CLOUDY    59  52  77 S18G35    29.21F
CUY CO. ARPT   NOT AVBL
LORAIN-ELYRIA  LGT RAIN  57  53  86 S23G37    29.21F
ASHTABULA      CLOUDY    57  51  80 S17G30    29.28F
AKRON-CANTON   CLOUDY    58  52  80 S26G40    29.29F
WOOSTER        LGT RAIN N/A N/A N/A S20G29    29.27F
MANSFIELD      LGT RAIN  56  55  97 S22G35    29.24S FOG
YOUNGSTOWN     LGT RAIN  57  52  83 S16G23    29.31F
$$

OHZ042-051>053-060>062-070>072-077>081-240900-
  SOUTHWEST OHIO

CITY           SKY/WX    TMP DP  RH WIND       PRES   REMARKS
CINC-COVINGTON CLOUDY    59  53  80 S16G29    29.34R
CINC-LUNKEN    CLOUDY    59  57  93 SW17      29.35R
HAMILTON       MOCLDY    59  55  87 SW13G29   29.32R
DAYTON         LGT RAIN  58  55  90 SW20G29   29.28R FOG
WRIGHT-PAT AFB CLOUDY    58  56  92 SW25G32   29.28R
DAYTON GENERAL CLOUDY    59  55  87 SW15G23   29.30R
WILMINGTON     CLOUDY    58  53  84 SW25G35   29.32R
$$

OHZ036-037-039>041-045>050-054>059-063>069-073>076-082>088-240900-
  CENTRAL AND SOUTHEAST OHIO

CITY           SKY/WX    TMP DP  RH WIND       PRES   REMARKS
COLUMBUS       CLOUDY    57  54  89 S18G26    29.31R
OSU AIRPORT    LGT RAIN  58  55  90 S21G30    29.29R
BOLTON FIELD   DRIZZLE   58  56  93 S25G35    29.32R
RICKENBACK AFB CLOUDY    57  55  92 S25G32    29.32R
NEWARK         CLOUDY    58  54  86 S20G30    29.32R
MARION         CLOUDY    57  54  89 S28G39    29.24R
LANCASTER      LGT RAIN  59  55  87 S17G31    29.34R
ZANESVILLE     LGT RAIN  56  53  90 S16G26    29.35R
NEW PHILLY     CLOUDY    59  54  83 S16G24    29.33F
$$


USA.gov is the U.S. government's official web portal to all federal, state and local government web resources and services.